Index of /~cstroupe/ideas/assets

[ICO]NameLast modifiedSizeDescription

[DIR]Parent Directory  -  
[IMG]Bewitched.JPG22-Feb-2016 15:45 15K 
[IMG]IDreamOfJeannie.JPG22-Feb-2016 15:45 23K 
[IMG]Local-Man-Moves-to-the-City-Garrison-Keillor-Highbridge-Audio-books.jpg22-Feb-2016 15:45 24K 
[IMG]MyFavoriteMartian.jpg22-Feb-2016 15:46 25K 
[IMG]Napoleons_retreat_from_moscow.jpg22-Feb-2016 15:46 15K 
[IMG]Norton_VA_idealism_construct_material.jpg06-Sep-2016 13:30 119K 
[IMG]Picasso-The_Guitar_Player-Analytic Cubism.jpg22-Feb-2016 15:46 45K 
[   ]Psycho_film_intro_9.key22-Feb-2016 15:46 1.6M 
[DIR]_notes/14-Feb-2011 09:22 -  
[DIR]academic/06-Feb-2019 07:47 -  
[IMG]amway_subjectivity.jpg22-Feb-2016 15:45 12K 
[IMG]as_essay_diagram19.jpg17-Apr-2019 13:35 18K 
[IMG]balto_statue_dog_central_park.jpg17-Apr-2019 15:54 225K 
[IMG]bang_space_tension.jpg22-Feb-2016 15:45 41K 
[IMG]base-superstructure.jpg22-Feb-2016 15:45 16K 
[IMG]beardley_decadence.jpg06-Sep-2016 13:57 24K 
[IMG]book_w_illustration.jpg21-Feb-2019 16:23 48K 
[IMG]books.jpg22-Feb-2016 15:45 64K 
[IMG]bordieu_field_culture.jpg05-Dec-2019 13:04 560K 
[IMG]bourdieu_field_culture.jpg05-Dec-2019 13:05 560K 
[IMG]bourdieu_field_culture_500.gif11-Dec-2019 15:18 37K 
[IMG]car_society_fullsize.jpg13-Feb-2019 09:39 26K 
[IMG]catname2.jpg22-Feb-2016 15:45 28K 
[IMG]classes.gif22-Feb-2016 15:45 200  
[IMG]classes_over.gif22-Feb-2016 15:45 200  
[IMG]cocktail_party_1965.jpg22-Feb-2016 15:45 29K 
[IMG]concert_spectator_interiority_incorporate.jpg25-Jan-2016 11:58 20K 
[IMG]conductor.jpg21-Feb-2019 16:23 232K 
[IMG]contact.gif22-Feb-2016 15:45 198  
[IMG]contact_over.gif22-Feb-2016 15:45 198  
[IMG]conversation.jpg15-Apr-2019 08:58 30K 
[IMG]dandelion.jpg22-Feb-2016 15:45 16K 
[IMG]darcy_mark.jpg22-Feb-2016 15:45 40K 
[IMG]darcy_mr.jpg22-Feb-2016 15:45 40K 
[IMG]dialogism_fallout.jpg22-Feb-2016 15:45 43K 
[IMG]dickens_tour.JPG07-Sep-2016 16:31 129K 
[IMG]discourse.jpg22-Apr-2019 08:47 83K 
[IMG]discourse2_19.jpg22-Apr-2019 08:56 57K 
[IMG]discourse_kinneavy.png22-Feb-2016 15:45 15K 
[IMG]discourse_kinneavy1.png22-Feb-2016 15:45 8.5K 
[IMG]discourse_kinneavy2.png22-Feb-2016 15:45 15K 
[IMG]discourse_kinneavy3.png22-Feb-2016 15:45 11K 
[IMG]discourse_kinneavy4.png22-Feb-2016 15:45 8.5K 
[IMG]discourse_layers.jpg05-Apr-2019 09:29 83K 
[IMG]dj.jpg21-Feb-2019 16:23 37K 
[IMG]driverslicense.jpg22-Feb-2016 15:45 64K 
[IMG]duluthcom.jpg22-Feb-2016 15:45 21K 
[IMG]edgar-allan-poe.jpg22-Feb-2016 15:45 25K 
[IMG]el_lissitzky_the_constructor.jpg22-Feb-2016 15:45 228K 
[IMG]el_lissitzky_the_constructor_370w.jpg22-Feb-2016 15:45 13K 
[   ]elaborated_iconic.doc22-Feb-2016 15:45 45K 
[IMG]elbow.jpg22-Feb-2016 15:45 7.1K 
[IMG]elizas-leap.jpg22-Feb-2016 15:45 35K 
[IMG]emmeline_pankhurst_arrest-350.jpg21-Feb-2018 11:37 12K 
[IMG]family_tree.jpg28-Feb-2019 16:29 69K 
[DIR]film/28-Nov-2018 21:13 -  
[IMG]folk_mass_culture700.jpg04-Mar-2019 08:59 229K 
[IMG]funhouse.jpg22-Feb-2016 15:45 11K 
[IMG]gender_fair_chauffeur_400.jpg21-Feb-2018 11:07 29K 
[IMG]german_expressionism.jpg10-Apr-2019 08:42 21K 
[IMG]hawthorne.jpg22-Feb-2016 15:45 4.0K 
[IMG]header_ideas.gif22-Feb-2016 15:45 873  
[IMG]highways.jpg22-Feb-2016 15:45 76K 
[IMG]hitchcock_psycho_lila_frame.jpg22-Feb-2016 15:45 72K 
[IMG]hitchcock_psycho_lila_rakes.jpg22-Feb-2016 15:45 64K 
[IMG]hitchcock_psycho_lila_rakes2_sam_full.jpg21-Apr-2017 09:03 40K 
[IMG]hitchcock_psycho_norman_frame.jpg22-Feb-2016 15:45 45K 
[IMG]hitchcock_psycho_norman_shock_bird.jpg22-Feb-2016 15:45 52K 
[IMG]home-over.gif22-Feb-2016 15:45 177  
[IMG]home.gif22-Feb-2016 15:45 177  
[IMG]homeostatic_tiv_nigeria.jpg01-May-2019 08:36 382K 
[IMG]idealism_construct_material.jpg13-Sep-2016 14:26 119K 
[IMG]idealism_construct_material_1mat.jpg13-Sep-2016 14:52 27K 
[IMG]idealism_construct_material_2ideal.jpg13-Sep-2016 14:26 24K 
[IMG]ideas.gif22-Feb-2016 15:45 172  
[IMG]ideas_over.gif22-Feb-2016 15:45 172  
[IMG]ideasmenu.jpg22-Feb-2016 15:45 17K 
[IMG]identity_flights.jpg22-Feb-2016 15:45 7.5K 
[IMG]lacan_train_signs.jpg04-Nov-2019 12:36 54K 
[IMG]lacan_train_stations.jpg04-Nov-2019 12:36 25K 
[IMG]lake1.jpg22-Feb-2016 15:45 11K 
[IMG]life.gif22-Feb-2016 15:45 152  
[IMG]life_over.gif22-Feb-2016 15:45 152  
[IMG]man_movie_camera_svilova_editing_500.jpg27-Feb-2019 15:42 28K 
[IMG]man_movie_camera_svilova_editing_full.jpg27-Feb-2019 15:42 63K 
[IMG]mapquest.jpg22-Feb-2016 15:45 32K 
[IMG]marx_and_dickens_london.jpg06-Sep-2016 22:32 60K 
[IMG]marx_dickens.jpg22-Oct-2018 17:22 87K 
[IMG]mccloud_c2_abstraction_ladder.jpg22-Feb-2016 15:45 39K 
[IMG]mccloud_c2_concepts_plato_old_lady.jpg22-Feb-2016 15:45 84K 
[IMG]mccloud_c2_disappears_into_abstration.jpg22-Feb-2016 15:45 82K 
[IMG]mccloud_c2_listened_if_looked_like_this.jpg22-Feb-2016 15:45 84K 
[IMG]mccloud_c2_own_face_self_image.jpg22-Feb-2016 15:45 150K 
[IMG]mccloud_c2_pyramid.jpg22-Feb-2016 15:45 97K 
[IMG]mccloud_c2_reality_to_icon_horz.jpg22-Feb-2016 15:46 95K 
[IMG]mccloud_c2_simple_realistic.jpg22-Feb-2016 15:46 56K 
[IMG]mccloud_c2_simple_realistic_indentification.jpg22-Feb-2016 15:46 50K 
[IMG]mccloud_c2_sword.jpg22-Feb-2016 15:46 79K 
[IMG]mccloud_c2_sword_reverse.jpg22-Feb-2016 15:46 36K 
[IMG]mccloud_c2_watch_that_nose_abstraction.jpg22-Feb-2016 15:46 143K 
[IMG]mccloud_c2_wizard_of_oz.png22-Feb-2016 15:46 150K 
[IMG]mccloud_c3_axe.jpg18-Oct-2016 09:50 27K 
[IMG]mccloud_c3_gutters_axe.jpg31-Oct-2018 11:56 95K 
[IMG]mccloud_c3_scene_to_scene.jpg31-Oct-2018 11:56 46K 
[IMG]mccloud_c3_transitions.jpg31-Oct-2018 11:56 398K 
[IMG]mccloud_c4_basketball.jpg22-Feb-2016 15:46 53K 
[IMG]mccloud_c4_mr_spot_postmod.gif14-Nov-2018 09:19 288K 
[IMG]mccloud_c4_party.jpg22-Feb-2016 15:46 179K 
[IMG]mccloud_c4_party_with_dialog.jpg31-Oct-2018 11:56 272K 
[IMG]mccloud_c4_timeless.jpg22-Feb-2016 15:46 90K 
[IMG]mccloud_c4_window.jpg31-Oct-2018 11:56 83K 
[IMG]mccloud_c6_word_image_combinations.jpg09-Apr-2018 09:01 505K 
[IMG]mccloud_c6_word_image_great_art.jpg22-Feb-2016 15:46 212K 
[IMG]mccloud_c7_6_steps_full.gif31-Oct-2018 11:56 416K 
[IMG]mccloud_c7_apple_full.gif31-Oct-2018 11:56 162K 
[IMG]mccloud_c7_from_idea_to_form_full.gif31-Oct-2018 12:08 296K 
[IMG]mccloud_gutters_axe.jpg20-Apr-2012 12:15 95K 
[IMG]mccloud_party_with_dialog.jpg20-Apr-2012 12:15 272K 
[IMG]mccloud_scene_to_scene.jpg20-Apr-2012 12:15 46K 
[IMG]mccloud_simple_realistic_indentification.jpg30-Apr-2012 12:31 50K 
[IMG]mccloud_sword.jpg15-Jan-2012 20:47 79K 
[IMG]mccloud_transitions.jpg15-Jan-2012 20:47 398K 
[IMG]mccloud_window.jpg15-Jan-2012 20:47 83K 
[IMG]mccloud_wizard_of_oz.png16-Apr-2012 12:38 150K 
[IMG]mred.jpg22-Feb-2016 15:46 9.9K 
[IMG]music_tree.jpg22-Feb-2016 15:46 154K 
[IMG]napon.gif22-Feb-2016 15:46 9.0K 
[IMG]new_woman_gibson.jpg21-Feb-2018 11:07 36K 
[IMG]news.gif22-Feb-2016 15:46 178  
[IMG]news_over.gif22-Feb-2016 15:46 178  
[IMG]oak.jpg22-Feb-2016 15:46 57K 
[IMG]oceanscape.jpg22-Feb-2016 15:46 207K 
[IMG]organizational_chart.jpg28-Feb-2019 16:29 67K 
[IMG]oswald.jpg22-Feb-2016 15:46 75K 
[IMG]oswald_jackson.jpg22-Feb-2016 15:46 59K 
[IMG]pater_walter.png22-Feb-2016 15:46 85K 
[IMG]pcback2.gif22-Feb-2016 15:46 380  
[IMG]phonebook.jpg22-Feb-2016 15:46 44K 
[IMG]picasso_three_musicians.jpg22-Feb-2016 15:46 62K 
[IMG]pool.jpg22-Feb-2016 15:46 8.6K 
[IMG]postcard_front_and_back.jpg22-Feb-2016 15:46 103K 
[IMG]posters_hall.jpg22-Feb-2016 15:46 34K 
[IMG]postmodernism_real-dogs.jpg22-Feb-2016 15:46 9.8K 
[IMG]prism.jpg22-Feb-2016 15:46 25K 
[DIR]psycho_editing/04-Dec-2020 17:01 -  
[IMG]quote2.gif22-Feb-2016 15:46 601  
[IMG]rancher_farmer.jpg05-Nov-2018 19:40 167K 
[IMG]repetition_warhol2.jpg22-Feb-2016 15:46 50K 
[IMG]resources.gif22-Feb-2016 15:46 223  
[IMG]resources_over.gif22-Feb-2016 15:46 223  
[IMG]road.jpg22-Feb-2016 15:46 3.2K 
[IMG]satrapi_11_2500_years.jpg22-Feb-2016 15:46 124K 
[IMG]satrapi_13_god_marx.jpg22-Feb-2016 15:46 102K 
[IMG]satrapi_22_grandpa_prince.jpg22-Feb-2016 15:46 43K 
[IMG]satrapi_43_now_that_devil_has_left.jpg22-Feb-2016 15:46 26K 
[IMG]satrapi_70-71_lost_war.jpg22-Feb-2016 15:46 140K 
[IMG]satrapi_76-77_vacation.jpg22-Feb-2016 15:46 248K 
[IMG]satrapi_153_better_just_go.jpg22-Feb-2016 15:46 116K 
[IMG]satrapi_black_white.jpg22-Feb-2016 15:46 44K 
[IMG]satrapi_hows_that_feel_saddam.jpg11-Apr-2018 11:08 83K 
[IMG]satrapi_suicide_bombers_punk_dance.jpg22-Feb-2016 15:46 125K 
[IMG]saucer.jpg22-Feb-2016 15:46 5.1K 
[IMG]scholarly_tropes_semiotic_square.jpg06-Dec-2016 13:40 29K 
[IMG]semiotic_hoffman_capote_almost_famous.jpg07-Nov-2018 10:51 509K 
[IMG]sherlock_holmes_350.jpg21-Feb-2018 11:08 12K 
[IMG]sherlock_holmes_full.jpg21-Feb-2018 11:10 22K 
[IMG]siegel.jpg22-Feb-2016 15:46 7.5K 
[IMG]snowmenu.jpg22-Feb-2016 15:46 14K 
[IMG]snowtreesback.jpg22-Feb-2016 15:46 19K 
[IMG]snowybanner3.jpg22-Feb-2016 15:46 11K 
[IMG]starling.jpg22-Feb-2016 15:46 51K 
[IMG]steamengine.jpg22-Feb-2016 15:46 28K 
[IMG]terraserver.jpg22-Feb-2016 15:46 15K 
[IMG]totem.jpg22-Feb-2016 15:46 13K 
[IMG]tubemap.jpg22-Feb-2016 15:46 20K 
[IMG]tufte_confection_road_to_ruin.jpg22-Feb-2016 15:46 128K 
[IMG]tufte_confection_ultimate_weed.jpg22-Feb-2016 15:46 117K 
[IMG]tufte_medical_chart.png04-Oct-2016 10:06 70K 
[IMG]tufte_medical_chart_key.png04-Oct-2016 10:06 8.3K 
[IMG]tufte_parallelism_notation_movement.jpg04-Dec-2018 08:37 77K 
[IMG]tufte_surgeon_general_warning.png04-Oct-2016 10:15 7.7K 
[IMG]twin_towers.jpg22-Feb-2016 15:46 16K 
[IMG]unicycle_juggle.jpg22-Feb-2016 15:46 11K 
[TXT]untitled.html22-Feb-2016 15:46 308  
[IMG]verbal_hierarchy.jpg22-Feb-2016 15:46 19K 
[IMG]visual_hierarchy_tabasco.jpg22-Feb-2016 15:46 27K 
[IMG]visver_collage.jpg22-Feb-2016 15:46 14K 
[IMG]visver_delayed_captions.jpg22-Feb-2016 15:46 11K 
[IMG]visver_layers.jpg22-Feb-2016 15:46 14K 
[IMG]visver_loops.jpg22-Feb-2016 15:46 8.5K 
[IMG]visver_map.jpg22-Feb-2016 15:46 14K 
[IMG]visver_nav_textual_space.jpg22-Feb-2016 15:46 13K 
[IMG]visver_web.jpg22-Feb-2016 15:46 11K 
[   ]walk1.jjpg22-Feb-2016 15:46 9.2K 
[IMG]white_cube_black_box.jpg25-Apr-2018 07:07 43K 
[IMG]wilde-the-uk-magazine-police-news-reported-his-trial-at-the-A04W3M.jpg21-Feb-2018 11:09 554K 
[IMG]wilde-the-uk-magazine_350.jpg21-Feb-2018 11:08 30K 
[IMG]wilde_calling_carf.jpg21-Feb-2018 11:08 12K 
[IMG]wilde_douglas_alfred.jpg21-Feb-2018 11:49 22K 
[IMG]wilde_fry_large.jpg14-Oct-2019 16:17 45K 
[IMG]word_image_combo.jpg22-Feb-2016 15:46 33K 
[IMG]writing.gif22-Feb-2016 15:46 209  
[DIR]writing_in_layers/24-Feb-2019 16:31 -  
[IMG]writing_over.gif22-Feb-2016 15:46 209  
[IMG]yellow_book_beardsley_prospectus.jpg21-Feb-2018 11:07 139K 

Apache/2.2.22 (Debian) Server at www.d.umn.edu Port 443